Regional Weather Roundup
Issued by NWS

Home | Current Version | Previous Version | Graphics & Text | Print | Product List | Glossary On
Versions: 1 2 3 4 5 6 7 8 9 10 11 12 13 14 15 16 17 18 19 20 21 22 23 24 25 26 27 28 29 30 31 32 33 34 35 36 37 38 39 40 41 42 43 44 45 46 47 48 49 50
396
ASUS45 KTFX 231910
RWRMT
MONTANA REGIONAL WEATHER ROUNDUP
NATIONAL WEATHER SERVICE GREAT FALLS MT
100 PM MDT MON MAY 23 2016

NOTE: "FAIR" INDICATES FEW OR NO CLOUDS BELOW 12000 FEET WITH NO
SIGNIFICANT WEATHER AND/OR OBSTRUCTIONS TO VISIBILITY.

MTZ001>007-043-232000-
WEST OF THE DIVIDE

CITY           SKY/WX    TMP DP  RH WIND       PRES   REMARKS
KALISPELL      LGT RAIN  48  47  96 S13       29.77R
MISSOULA       LGT RAIN  50  40  68 NW6       29.84S
BUTTE          CLOUDY    44  32  62 CALM      29.85S
MULLAN PASS    SNOW      32  32 100 VRB7      29.81S VSB 1/4 WCI  26
ANACONDA         N/A     50  28  43 W15G21    29.81F
DEER LODGE       N/A     46  37  71 NW12      29.83R
EUREKA           N/A     48  39  71 SE7       29.77R
HAMILTON         N/A     54  32  43 S6        29.83F
LIBBY            N/A     48  45  87 NW7       29.79R
PLAINS           N/A     51  41  69 S5        29.84R
THOMPSON FALLS   N/A     49  44  83 W1        29.88
$$

MTZ008-052>055-232000-
SOUTHWEST MONTANA

CITY           SKY/WX    TMP DP  RH WIND       PRES   REMARKS
BOZEMAN        CLOUDY    54  32  43 SW9       29.82S
DILLON         CLOUDY    51  30  44 W10       29.85F
ENNIS          PTSUNNY   50  28  43 SW16      29.91S
TWIN BRIDGES     N/A     53  30  41 E5        29.86
$$

MTZ009-010-012-014-046-048-049-054-232000-
EAST SLOPES AND CENTRAL MONTANA

CITY           SKY/WX    TMP DP  RH WIND       PRES   REMARKS
CUT BANK       CLOUDY    44  41  89 NW16      29.72S
GREAT FALLS    LGT RAIN  51  39  63 W12G20    29.72R
MALMSTROM AFB  CLOUDY    53  38  56 W13G22    29.73R
HELENA         LGT RAIN  49  41  74 W12       29.81R
CHOTEAU          N/A     48  41  76 NE5       29.74S
CONRAD           N/A     47  46  96 W8        29.78S
$$

MTZ011-013-016-021-045-047-050-051-232000-
NORTH CENTRAL MONTANA

CITY           SKY/WX    TMP DP  RH WIND       PRES   REMARKS
HAVRE          CLOUDY    50  42  74 W17       29.67S
LEWISTOWN      LGT RAIN  52  34  50 W17G26    29.73S
N BAR RANCH      N/A     50  34  53 W18G31    29.75S
CHINOOK          N/A     50  43  76 W18       29.66S
$$

MTZ017>020-022>027-061-062-232000-
NORTHEAST MONTANA

CITY           SKY/WX    TMP DP  RH WIND       PRES   REMARKS
GLASGOW        PTSUNNY   57  41  55 W23G30    29.64R
JORDAN           N/A     59  40  49 W17G26    29.69S
SIDNEY         MOSUNNY   70  35  27 SW26G33   29.63F
WOLF POINT     CLOUDY    64  40  41 W23G35    29.66R
PLENTYWOOD       N/A     61  39  44 SW22G31   29.62S
POPLAR           N/A     61  39  44 W20G30    29.65S
SCOBEY           N/A     59  36  42 SW23      29.62S
$$

MTZ028>42-056>058-232000-
SOUTHCENTRAL AND SOUTHEAST MONTANA

CITY           SKY/WX    TMP DP  RH WIND       PRES   REMARKS
BAKER          PTSUNNY   68  31  25 W14       29.72F
BILLINGS       PTSUNNY   61  31  32 W20G25    29.76S
LIVINGSTON     CLOUDY    55  31  39 W26G35    29.79F
MILES CITY     MOSUNNY   68  33  27 W17G31    29.70S
EKALAKA          N/A     64  29  27 W12       29.75S
FORSYTH          N/A     64  32  29 W20G29    29.71S
LAUREL           N/A     60  31  33 SW14      29.78R
$$

REGIONAL REPORTS...DAKOTAS

CITY           SKY/WX    TMP DP  RH WIND       PRES   REMARKS
WILLISTON      MOSUNNY   73  33  23 SW17G30   29.63S
MINOT          MOSUNNY   80  34  19 SW17G28   29.61S
DICKINSON      SUNNY     71  29  21 W23G30    29.67F
BEACH            N/A     68  30  24 W26G33    29.72F
CROSBY           N/A     68  32  26 SW21G29   29.62S
WATFORD CITY     N/A     72  32  23 W21G30    29.64F
BISMARCK       SUNNY     78  37  22 W12G18    29.67F
GRAND FORKS    MOSUNNY   79  53  40 W14       29.63S
FARGO          MOSUNNY   80  48  32 NW5       29.66S
BUFFALO SD       N/A     72  31  22 SW14      29.66F
RAPID CITY     MOSUNNY   74  33  22 SE17G26   29.72F
$$

REGIONAL REPORTS...WYOMING/IDAHO/WASHINGTON

CITY           SKY/WX    TMP DP  RH WIND       PRES   REMARKS
GILLETTE       SUNNY     66  23  19 SW15G29   29.75F
SHERIDAN       PTSUNNY   66  27  23 N12       29.74F
BUFFALO WY     SUNNY     63  28  26 NW8       29.78S
CODY           MOSUNNY   57  27  30 W16G23    29.82F
YELLOWSTONE LA   N/A     38  26  62 VRB7      29.95S
IDAHO FALLS    CLOUDY    56  33  42 S15G25    29.91F
SALMON         CLOUDY    54  32  43 W3        29.84F
BOISE            N/A     64  34  32 CALM      29.88F
SPOKANE        LGT RAIN  50  44  80 SW15      29.83R
$$

REGIONAL REPORTS...ALBERTA

CITY           SKY/WX    TMP DP  RH WIND       PRES   REMARKS
EDMONTON       CLOUDY    45  41  87 NW10      29.70S
CALGARY        CLOUDY    46  36  66 NW24G30   29.70S
LETHBRIDGE     LGT RAIN  45  39  81 NW20      29.72R
MEDICINE HAT   CLOUDY    48  45  87 W18       29.63R
$$

REGIONAL REPORTS...SASKATCHEWAN

CITY           SKY/WX    TMP DP  RH WIND       PRES   REMARKS
SWIFT CURRENT  PTSUNNY   50  46  87 W13       29.49R
REGINA         CLOUDY    55  41  58 SW12G18   29.54F
SASKATOON      CLOUDY    55  39  54 S7        29.51S
$$




USA.gov is the U.S. government's official web portal to all federal, state and local government web resources and services.